Time,TemperatureF,DewpointF,PressureIn,WindDirection,WindDirectionDegrees,WindSpeedMPH,WindSpeedGustMPH,Humidity,HourlyPrecipIn,Conditions,Clouds,dailyrainin,SoftwareType,DateUTC
2013-01-29 00:00:00,20.2,20.2,30.07,NNE,24,1.1,1.7,100,0.00,-SN,,0.00,WeatherDisplay:10.37,2013-01-29 05:00:00,
2013-01-29 00:01:00,20.2,20.2,30.08,NNE,21,2.3,2.3,100,0.00,-SN,,0.00,WeatherDisplay:10.37,2013-01-29 05:01:00,
2013-01-29 00:03:00,20.2,20.2,30.08,NNE,18,2.3,2.3,100,0.00,-SN,,0.00,WeatherDisplay:10.37,2013-01-29 05:03:00,
2013-01-29 00:08:00,20.2,20.2,30.08,North,0,2.3,2.3,100,0.00,-SN,,0.00,WeatherDisplay:10.37,2013-01-29 05:08:00,
2013-01-29 00:13:00,20.2,20.2,30.07,North,0,2.3,2.3,100,0.00,-SN,,0.00,WeatherDisplay:10.37,2013-01-29 05:13:00,
2013-01-29 00:19:00,20.2,20.2,30.07,North,0,4.6,4.6,100,0.00,-SN,,0.00,WeatherDisplay:10.37,2013-01-29 05:19:00,
2013-01-29 00:24:00,20.2,20.2,30.07,NNE,18,4.6,4.6,100,0.00,-SN,,0.00,WeatherDisplay:10.37,2013-01-29 05:24:00,
2013-01-29 00:29:00,20.2,20.2,30.07,North,0,4.6,4.6,100,0.00,-SN,,0.00,WeatherDisplay:10.37,2013-01-29 05:29:00,
2013-01-29 00:34:00,20.2,20.2,30.07,North,0,4.2,4.2,100,0.00,-SN,,0.00,WeatherDisplay:10.37,2013-01-29 05:34:00,
2013-01-29 00:40:00,20.2,20.2,30.07,North,0,2.8,2.8,100,0.00,-SN,,0.00,WeatherDisplay:10.37,2013-01-29 05:40:00,
2013-01-29 00:45:00,20.2,20.2,30.07,NNE,13,2.3,2.3,100,0.00,-SN,,0.00,WeatherDisplay:10.37,2013-01-29 05:45:00,
2013-01-29 00:50:00,20.2,20.2,30.07,North,352,2.3,2.3,100,0.00,-SN,,0.00,WeatherDisplay:10.37,2013-01-29 05:50:00,
2013-01-29 00:55:00,20.2,20.2,30.07,NNE,24,4.6,4.6,100,0.00,-SN,,0.00,WeatherDisplay:10.37,2013-01-29 05:55:00,
2013-01-29 01:00:00,20.2,20.2,30.07,NNE,24,1.1,1.1,100,0.00,-SN,,0.00,WeatherDisplay:10.37,2013-01-29 06:00:00,
2013-01-29 01:05:00,20.2,20.2,30.07,NNE,24,2.3,2.3,100,0.00,-SN,,0.00,WeatherDisplay:10.37,2013-01-29 06:05:00,
2013-01-29 01:10:00,20.2,20.2,30.07,NNE,24,1.1,1.1,100,0.00,-SN,,0.00,WeatherDisplay:10.37,2013-01-29 06:10:00,
2013-01-29 01:15:00,20.2,20.2,30.07,NNE,24,0.0,0.0,100,0.00,-SN,,0.00,WeatherDisplay:10.37,2013-01-29 06:15:00,
2013-01-29 01:20:00,20.2,20.2,30.07,NNE,24,0.0,0.1,100,0.00,-SN,,0.00,WeatherDisplay:10.37,2013-01-29 06:20:00,
2013-01-29 01:25:00,20.2,20.2,30.07,NNE,24,0.0,1.2,100,0.00,-SN,,0.00,WeatherDisplay:10.37,2013-01-29 06:25:00,
2013-01-29 01:30:00,20.2,20.2,30.07,NNE,24,2.3,2.3,100,0.00,-SN,,0.00,WeatherDisplay:10.37,2013-01-29 06:30:00,
2013-01-29 01:35:00,20.2,20.2,30.08,NNE,24,1.1,1.1,100,0.00,-SN,,0.00,WeatherDisplay:10.37,2013-01-29 06:35:00,
2013-01-29 01:40:00,20.2,20.2,30.07,NNE,24,0.0,0.0,100,0.00,-SN,,0.00,WeatherDisplay:10.37,2013-01-29 06:40:00,
2013-01-29 01:45:00,20.2,20.2,30.08,NNE,24,2.3,2.3,100,0.00,-SN,,0.00,WeatherDisplay:10.37,2013-01-29 06:45:00,
2013-01-29 01:50:00,20.0,20.0,30.08,NNE,24,1.1,1.3,100,0.00,-SN,,0.00,WeatherDisplay:10.37,2013-01-29 06:50:00,
2013-01-29 01:55:00,20.0,20.0,30.08,NNE,24,4.6,4.6,100,0.00,-SN,,0.00,WeatherDisplay:10.37,2013-01-29 06:55:00,
2013-01-29 02:00:00,20.0,20.0,30.08,NNE,23,1.1,0.0,100,0.00,-SN,,0.00,WeatherDisplay:10.37,2013-01-29 07:00:00,
2013-01-29 02:05:00,19.8,19.8,30.08,North,352,5.8,5.8,100,0.00,BKN,,0.00,WeatherDisplay:10.37,2013-01-29 07:05:00,
2013-01-29 02:10:00,19.7,19.7,30.08,North,352,1.1,1.1,100,0.00,BKN,,0.00,WeatherDisplay:10.37,2013-01-29 07:10:00,
2013-01-29 02:15:00,19.7,19.7,30.08,North,0,5.8,5.8,100,0.00,BKN,,0.00,WeatherDisplay:10.37,2013-01-29 07:15:00,
2013-01-29 02:20:00,19.7,19.7,30.08,North,352,4.6,4.6,100,0.00,BKN,,0.00,WeatherDisplay:10.37,2013-01-29 07:20:00,
2013-01-29 02:26:00,19.5,19.5,30.07,North,352,2.3,2.3,100,0.00,BKN,,0.00,WeatherDisplay:10.37,2013-01-29 07:26:00,
2013-01-29 02:31:00,19.5,19.5,30.08,NNW,346,2.3,2.3,100,0.00,BKN,,0.00,WeatherDisplay:10.37,2013-01-29 07:31:00,
2013-01-29 02:36:00,19.5,19.5,30.08,WNW,298,4.6,4.6,100,0.00,BKN,,0.00,WeatherDisplay:10.37,2013-01-29 07:36:00,
2013-01-29 02:41:00,19.2,19.2,30.08,NW,316,2.3,2.3,100,0.00,BKN,,0.00,WeatherDisplay:10.37,2013-01-29 07:41:00,
2013-01-29 02:46:00,19.2,19.0,30.08,North,349,2.3,2.3,99,0.00,BKN,,0.00,WeatherDisplay:10.37,2013-01-29 07:46:00,
2013-01-29 02:51:00,18.9,18.7,30.08,North,349,1.1,1.1,99,0.00,BKN,,0.00,WeatherDisplay:10.37,2013-01-29 07:51:00,
2013-01-29 02:56:00,18.9,18.7,30.08,NE,34,2.3,2.3,99,0.00,BKN,,0.00,WeatherDisplay:10.37,2013-01-29 07:56:00,
2013-01-29 03:01:00,18.7,18.5,30.08,North,0,2.3,2.3,99,0.00,BKN,,0.00,WeatherDisplay:10.37,2013-01-29 08:01:00,
2013-01-29 03:06:00,18.4,18.2,30.08,North,0,2.8,2.8,99,0.00,CLR,,0.00,WeatherDisplay:10.37,2013-01-29 08:06:00,
2013-01-29 03:11:00,18.3,18.1,30.08,North,0,4.6,4.6,99,0.00,CLR,,0.00,WeatherDisplay:10.37,2013-01-29 08:11:00,
2013-01-29 03:16:00,18.1,17.9,30.08,North,0,0.0,0.0,99,0.00,CLR,,0.00,WeatherDisplay:10.37,2013-01-29 08:16:00,
2013-01-29 03:21:00,17.6,17.4,30.08,North,0,2.3,2.3,99,0.00,CLR,,0.00,WeatherDisplay:10.37,2013-01-29 08:21:00,
2013-01-29 03:26:00,17.5,17.0,30.08,SW,229,1.1,0.0,98,0.00,CLR,,0.00,WeatherDisplay:10.37,2013-01-29 08:26:00,
2013-01-29 03:31:00,17.2,17.0,30.08,SW,229,0.0,0.0,99,0.00,CLR,,0.00,WeatherDisplay:10.37,2013-01-29 08:31:00,
2013-01-29 03:36:00,17.0,16.8,30.08,SW,229,1.1,0.0,99,0.00,CLR,,0.00,WeatherDisplay:10.37,2013-01-29 08:36:00,
2013-01-29 03:41:00,16.8,16.6,30.08,West,280,0.0,0.0,99,0.00,CLR,,0.00,WeatherDisplay:10.37,2013-01-29 08:41:00,
2013-01-29 03:46:00,16.8,16.6,30.08,WNW,296,0.0,0.0,99,0.00,CLR,,0.00,WeatherDisplay:10.37,2013-01-29 08:46:00,
2013-01-29 03:51:00,16.5,16.3,30.08,WNW,296,1.1,0.0,99,0.00,CLR,,0.00,WeatherDisplay:10.37,2013-01-29 08:51:00,
2013-01-29 03:56:00,16.4,16.2,30.08,WNW,296,0.0,0.0,99,0.00,CLR,,0.00,WeatherDisplay:10.37,2013-01-29 08:56:00,
2013-01-29 04:01:00,16.4,16.2,30.08,WNW,296,0.0,0.0,99,0.00,CLR,,0.00,WeatherDisplay:10.37,2013-01-29 09:01:00,
2013-01-29 04:06:00,16.2,16.2,30.08,WNW,296,0.0,0.0,100,0.00,CLR,,0.00,WeatherDisplay:10.37,2013-01-29 09:06:00,
2013-01-29 04:11:00,16.2,16.2,30.08,WNW,296,0.0,0.0,100,0.00,CLR,,0.00,WeatherDisplay:10.37,2013-01-29 09:11:00,
2013-01-29 04:16:00,16.2,16.2,30.08,WNW,296,0.0,0.0,100,0.00,CLR,,0.00,WeatherDisplay:10.37,2013-01-29 09:16:00,
2013-01-29 04:21:00,16.2,16.2,30.09,WNW,296,0.0,0.0,100,0.00,CLR,,0.00,WeatherDisplay:10.37,2013-01-29 09:21:00,
2013-01-29 04:26:00,16.1,16.1,30.09,WNW,296,0.0,0.0,100,0.00,CLR,,0.00,WeatherDisplay:10.37,2013-01-29 09:26:00,
2013-01-29 04:31:00,16.2,16.2,30.09,WNW,296,0.0,0.0,100,0.00,CLR,,0.00,WeatherDisplay:10.37,2013-01-29 09:31:00,
2013-01-29 04:36:00,16.2,16.2,30.09,WNW,296,0.0,0.0,100,0.00,CLR,,0.00,WeatherDisplay:10.37,2013-01-29 09:36:00,
2013-01-29 04:41:00,16.4,16.4,30.10,WNW,296,0.0,0.0,100,0.00,CLR,,0.00,WeatherDisplay:10.37,2013-01-29 09:41:00,
2013-01-29 04:46:00,16.4,16.4,30.10,WNW,296,0.0,0.0,100,0.00,CLR,,0.00,WeatherDisplay:10.37,2013-01-29 09:46:00,
2013-01-29 04:51:00,16.4,16.4,30.09,WNW,296,0.0,0.0,100,0.00,CLR,,0.00,WeatherDisplay:10.37,2013-01-29 09:51:00,
2013-01-29 04:56:00,16.4,16.4,30.10,WNW,296,0.0,0.0,100,0.00,CLR,,0.00,WeatherDisplay:10.37,2013-01-29 09:56:00,
2013-01-29 05:01:00,16.5,16.5,30.09,WNW,296,0.0,0.0,100,0.00,FEW,,0.00,WeatherDisplay:10.37,2013-01-29 10:01:00,
2013-01-29 05:06:00,16.7,16.7,30.10,WNW,296,0.0,0.0,100,0.00,FEW,,0.00,WeatherDisplay:10.37,2013-01-29 10:06:00,
2013-01-29 05:11:00,16.7,16.7,30.09,WNW,296,0.0,0.0,100,0.00,FEW,,0.00,WeatherDisplay:10.37,2013-01-29 10:11:00,
2013-01-29 05:16:00,16.7,16.7,30.09,WNW,296,0.0,0.0,100,0.00,FEW,,0.00,WeatherDisplay:10.37,2013-01-29 10:16:00,
2013-01-29 05:21:00,16.8,16.8,30.09,WNW,296,0.0,0.0,100,0.00,FEW,,0.00,WeatherDisplay:10.37,2013-01-29 10:21:00,
2013-01-29 05:26:00,17.0,17.0,30.10,WNW,296,1.1,1.2,100,0.00,FEW,,0.00,WeatherDisplay:10.37,2013-01-29 10:26:00,
2013-01-29 05:31:00,17.3,17.3,30.10,NW,313,4.6,4.6,100,0.00,FEW,,0.00,WeatherDisplay:10.37,2013-01-29 10:31:00,
2013-01-29 05:36:00,17.5,17.5,30.10,NW,313,1.4,1.4,100,0.00,FEW,,0.00,WeatherDisplay:10.37,2013-01-29 10:36:00,
2013-01-29 05:41:00,17.6,17.6,30.10,NW,318,2.3,2.3,100,0.00,FEW,,0.00,WeatherDisplay:10.37,2013-01-29 10:41:00,
2013-01-29 05:46:00,17.6,17.6,30.11,NW,320,2.3,2.3,100,0.00,FEW,,0.00,WeatherDisplay:10.37,2013-01-29 10:46:00,
2013-01-29 05:51:00,17.8,17.8,30.11,NW,322,4.6,4.6,100,0.00,FEW,,0.00,WeatherDisplay:10.37,2013-01-29 10:51:00,
2013-01-29 05:56:00,17.9,17.9,30.11,NW,322,4.6,4.6,100,0.00,FEW,,0.00,WeatherDisplay:10.37,2013-01-29 10:56:00,
2013-01-29 06:01:00,17.9,17.9,30.11,NW,322,0.0,0.0,100,0.00,OVC,,0.00,WeatherDisplay:10.37,2013-01-29 11:01:00,
2013-01-29 06:07:00,18.1,18.1,30.11,NW,322,0.0,0.0,100,0.00,OVC,,0.00,WeatherDisplay:10.37,2013-01-29 11:07:00,
2013-01-29 06:12:00,18.1,18.1,30.12,NW,322,0.0,0.0,100,0.00,OVC,,0.00,WeatherDisplay:10.37,2013-01-29 11:12:00,
2013-01-29 06:17:00,18.3,18.3,30.12,NW,322,0.0,0.0,100,0.00,OVC,,0.00,WeatherDisplay:10.37,2013-01-29 11:17:00,
2013-01-29 06:22:00,18.3,18.1,30.12,NW,322,0.0,0.0,99,0.00,OVC,,0.00,WeatherDisplay:10.37,2013-01-29 11:22:00,
2013-01-29 06:27:00,18.3,18.1,30.12,NW,322,0.0,0.0,99,0.00,OVC,,0.00,WeatherDisplay:10.37,2013-01-29 11:27:00,
2013-01-29 06:32:00,18.1,17.9,30.12,NW,322,0.0,0.0,99,0.00,OVC,,0.00,WeatherDisplay:10.37,2013-01-29 11:32:00,
2013-01-29 06:37:00,18.1,17.9,30.13,NW,322,0.0,0.0,99,0.00,OVC,,0.00,WeatherDisplay:10.37,2013-01-29 11:37:00,
2013-01-29 06:42:00,18.1,17.9,30.13,NW,322,0.0,0.0,99,0.00,OVC,,0.00,WeatherDisplay:10.37,2013-01-29 11:42:00,
2013-01-29 06:47:00,18.3,18.1,30.13,NW,322,1.1,0.0,99,0.00,OVC,,0.00,WeatherDisplay:10.37,2013-01-29 11:47:00,
2013-01-29 06:52:00,18.3,18.1,30.13,NW,322,1.1,0.0,99,0.00,OVC,,0.00,WeatherDisplay:10.37,2013-01-29 11:52:00,
2013-01-29 06:57:00,18.3,17.8,30.12,NW,322,0.0,0.0,98,0.00,OVC,,0.00,WeatherDisplay:10.37,2013-01-29 11:57:00,
2013-01-29 07:02:00,18.3,17.8,30.12,NW,322,0.0,0.0,98,0.00,OVC,,0.00,WeatherDisplay:10.37,2013-01-29 12:02:00,
2013-01-29 07:07:00,18.3,17.8,30.12,NW,322,0.0,0.0,98,0.00,OVC,,0.00,WeatherDisplay:10.37,2013-01-29 12:07:00,
2013-01-29 07:12:00,18.3,17.8,30.12,NW,322,0.0,0.0,98,0.00,OVC,,0.00,WeatherDisplay:10.37,2013-01-29 12:12:00,
2013-01-29 07:17:00,18.3,17.8,30.13,NW,322,0.0,0.0,98,0.00,OVC,,0.00,WeatherDisplay:10.37,2013-01-29 12:17:00,
2013-01-29 07:22:00,18.4,17.9,30.12,NW,322,0.0,0.0,98,0.00,OVC,,0.00,WeatherDisplay:10.37,2013-01-29 12:22:00,
2013-01-29 07:27:00,18.4,17.9,30.12,NW,322,0.0,0.0,98,0.00,OVC,,0.00,WeatherDisplay:10.37,2013-01-29 12:27:00,
2013-01-29 07:32:00,18.4,17.9,30.11,NW,322,0.0,0.0,98,0.00,OVC,,0.00,WeatherDisplay:10.37,2013-01-29 12:32:00,
2013-01-29 07:37:00,18.6,18.1,30.12,NW,322,0.0,0.0,98,0.00,OVC,,0.00,WeatherDisplay:10.37,2013-01-29 12:37:00,
2013-01-29 07:42:00,18.6,18.1,30.12,NW,322,0.0,0.0,98,0.00,OVC,,0.00,WeatherDisplay:10.37,2013-01-29 12:42:00,
2013-01-29 07:47:00,18.7,18.2,30.13,NW,322,2.3,2.3,98,0.00,OVC,,0.00,WeatherDisplay:10.37,2013-01-29 12:47:00,
2013-01-29 07:52:00,18.9,18.4,30.14,NW,322,1.1,1.1,98,0.00,OVC,,0.00,WeatherDisplay:10.37,2013-01-29 12:52:00,
2013-01-29 07:57:00,18.9,18.4,30.14,NW,322,1.1,1.1,98,0.00,OVC,,0.00,WeatherDisplay:10.37,2013-01-29 12:57:00,
2013-01-29 08:02:00,19.0,18.5,30.15,NW,322,2.8,2.8,98,0.00,OVC,,0.00,WeatherDisplay:10.37,2013-01-29 13:02:00,
2013-01-29 08:07:00,19.2,18.7,30.15,NW,322,2.3,2.3,98,0.00,OVC,,0.00,WeatherDisplay:10.37,2013-01-29 13:07:00,
2013-01-29 08:12:00,19.4,18.7,30.15,NW,322,2.3,2.3,97,0.00,OVC,,0.00,WeatherDisplay:10.37,2013-01-29 13:12:00,
2013-01-29 08:17:00,19.4,18.7,30.14,NNW,329,0.0,0.0,97,0.00,OVC,,0.00,WeatherDisplay:10.37,2013-01-29 13:17:00,
2013-01-29 08:22:00,19.5,18.8,30.15,NNW,329,0.0,0.0,97,0.00,OVC,,0.00,WeatherDisplay:10.37,2013-01-29 13:22:00,
2013-01-29 08:27:00,19.8,19.1,30.15,NNW,329,0.0,0.0,97,0.00,OVC,,0.00,WeatherDisplay:10.37,2013-01-29 13:27:00,
2013-01-29 08:32:00,20.2,19.5,30.16,NNW,329,1.1,1.1,97,0.00,OVC,,0.00,WeatherDisplay:10.37,2013-01-29 13:32:00,
2013-01-29 08:37:00,20.2,19.2,30.16,NNW,329,2.3,2.3,96,0.00,OVC,,0.00,WeatherDisplay:10.37,2013-01-29 13:37:00,
2013-01-29 08:42:00,20.2,19.2,30.17,NNW,329,0.0,0.0,96,0.00,OVC,,0.00,WeatherDisplay:10.37,2013-01-29 13:42:00,
2013-01-29 08:47:00,20.2,19.0,30.17,NNW,330,2.3,2.3,95,0.00,OVC,,0.00,WeatherDisplay:10.37,2013-01-29 13:47:00,
2013-01-29 08:52:00,20.2,19.0,30.17,NNW,330,0.0,0.5,95,0.00,OVC,,0.00,WeatherDisplay:10.37,2013-01-29 13:52:00,
2013-01-29 08:57:00,20.2,19.2,30.17,NNW,330,0.0,0.0,96,0.00,OVC,,0.00,WeatherDisplay:10.37,2013-01-29 13:57:00,
2013-01-29 09:02:00,20.3,19.3,30.17,NNW,330,0.0,0.2,96,0.00,OVC,,0.00,WeatherDisplay:10.37,2013-01-29 14:02:00,
2013-01-29 09:07:00,20.5,19.3,30.17,NNW,332,4.6,4.6,95,0.00,OVC,,0.00,WeatherDisplay:10.37,2013-01-29 14:07:00,
2013-01-29 09:12:00,20.6,19.4,30.17,NNW,332,0.0,0.0,95,0.00,OVC,,0.00,WeatherDisplay:10.37,2013-01-29 14:12:00,
2013-01-29 09:17:00,20.8,19.3,30.17,NNW,332,1.1,1.1,94,0.00,OVC,,0.00,WeatherDisplay:10.37,2013-01-29 14:17:00,
2013-01-29 09:22:00,20.9,19.4,30.18,NNW,330,4.6,4.6,94,0.00,OVC,,0.00,WeatherDisplay:10.37,2013-01-29 14:22:00,
2013-01-29 09:27:00,21.1,19.6,30.18,SW,234,0.0,1.0,94,0.00,OVC,,0.00,WeatherDisplay:10.37,2013-01-29 14:27:00,
2013-01-29 09:32:00,21.7,20.2,30.19,SW,234,0.0,0.0,94,0.00,OVC,,0.00,WeatherDisplay:10.37,2013-01-29 14:32:00,
2013-01-29 09:38:00,22.0,20.5,30.19,North,354,4.6,4.6,94,0.00,OVC,,0.00,WeatherDisplay:10.37,2013-01-29 14:38:00,
2013-01-29 09:43:00,21.9,19.9,30.19,NNW,336,2.8,2.8,92,0.00,OVC,,0.00,WeatherDisplay:10.37,2013-01-29 14:43:00,
2013-01-29 09:48:00,21.9,19.9,30.19,NE,37,0.0,0.0,92,0.00,OVC,,0.00,WeatherDisplay:10.37,2013-01-29 14:48:00,
2013-01-29 09:53:00,21.9,19.9,30.19,NE,37,4.6,4.6,92,0.00,OVC,,0.00,WeatherDisplay:10.37,2013-01-29 14:53:00,
2013-01-29 09:58:00,22.0,19.8,30.19,North,8,4.6,4.6,91,0.00,OVC,,0.00,WeatherDisplay:10.37,2013-01-29 14:58:00,
2013-01-29 10:03:00,22.0,19.8,30.19,North,359,6.9,6.9,91,0.00,OVC,,0.00,WeatherDisplay:10.37,2013-01-29 15:03:00,
2013-01-29 10:08:00,22.3,20.1,30.20,North,359,1.1,1.1,91,0.00,OVC,,0.00,WeatherDisplay:10.37,2013-01-29 15:08:00,
2013-01-29 10:13:00,22.6,20.4,30.20,North,359,2.3,2.3,91,0.00,OVC,,0.00,WeatherDisplay:10.37,2013-01-29 15:13:00,
2013-01-29 10:18:00,22.8,20.6,30.20,North,6,2.3,0.0,91,0.00,OVC,,0.00,WeatherDisplay:10.37,2013-01-29 15:18:00,
2013-01-29 10:23:00,23.1,20.9,30.20,NE,37,2.3,2.3,91,0.00,OVC,,0.00,WeatherDisplay:10.37,2013-01-29 15:23:00,
2013-01-29 10:28:00,23.2,20.7,30.20,NNE,17,2.3,2.3,90,0.00,OVC,,0.00,WeatherDisplay:10.37,2013-01-29 15:28:00,
2013-01-29 10:33:00,23.4,20.9,30.20,NNE,17,2.3,2.3,90,0.00,OVC,,0.00,WeatherDisplay:10.37,2013-01-29 15:33:00,
2013-01-29 10:38:00,23.7,21.2,30.20,North,356,2.3,2.3,90,0.00,OVC,,0.00,WeatherDisplay:10.37,2013-01-29 15:38:00,
2013-01-29 10:43:00,24.0,21.5,30.20,North,0,4.6,4.6,90,0.00,OVC,,0.00,WeatherDisplay:10.37,2013-01-29 15:43:00,
2013-01-29 10:48:00,24.2,21.7,30.20,North,3,4.2,4.2,90,0.00,OVC,,0.00,WeatherDisplay:10.37,2013-01-29 15:48:00,
2013-01-29 10:53:00,24.5,22.0,30.20,NNE,32,4.6,4.6,90,0.00,OVC,,0.00,WeatherDisplay:10.37,2013-01-29 15:53:00,
2013-01-29 10:59:00,24.8,22.3,30.21,NE,42,2.3,2.3,90,0.00,OVC,,0.00,WeatherDisplay:10.37,2013-01-29 15:59:00,
2013-01-29 11:04:00,24.8,22.3,30.21,North,349,1.1,1.1,90,0.00,OVC,,0.00,WeatherDisplay:10.37,2013-01-29 16:04:00,
2013-01-29 11:09:00,25.3,22.8,30.21,NNE,17,4.2,4.2,90,0.00,OVC,,0.00,WeatherDisplay:10.37,2013-01-29 16:09:00,
2013-01-29 11:14:00,25.3,22.5,30.21,NNW,328,1.1,1.1,89,0.00,OVC,,0.00,WeatherDisplay:10.37,2013-01-29 16:14:00,
2013-01-29 11:19:00,25.4,22.9,30.20,North,359,6.9,6.9,90,0.00,OVC,,0.00,WeatherDisplay:10.37,2013-01-29 16:19:00,
2013-01-29 11:24:00,25.6,22.8,30.20,NE,34,2.3,2.3,89,0.00,OVC,,0.00,WeatherDisplay:10.37,2013-01-29 16:24:00,
2013-01-29 11:29:00,25.7,22.9,30.20,NE,42,4.6,4.6,89,0.00,OVC,,0.00,WeatherDisplay:10.37,2013-01-29 16:29:00,
2013-01-29 11:34:00,26.0,22.9,30.20,NE,44,2.8,2.8,88,0.01,RA,,0.01,WeatherDisplay:10.37,2013-01-29 16:34:00,
2013-01-29 11:39:00,26.2,23.4,30.20,NE,44,1.1,0.0,89,0.01,RA,,0.01,WeatherDisplay:10.37,2013-01-29 16:39:00,
2013-01-29 11:44:00,26.6,23.5,30.20,NE,44,1.1,1.1,88,0.01,OVC,,0.01,WeatherDisplay:10.37,2013-01-29 16:44:00,
2013-01-29 11:49:00,27.1,23.7,30.19,NE,55,2.3,2.3,87,0.01,OVC,,0.01,WeatherDisplay:10.37,2013-01-29 16:49:00,
2013-01-29 11:54:00,27.1,23.7,30.19,ENE,71,6.9,6.9,87,0.02,RA,,0.02,WeatherDisplay:10.37,2013-01-29 16:54:00,
2013-01-29 12:01:00,26.2,23.4,30.18,ENE,78,6.9,6.9,89,0.02,RA,,0.02,WeatherDisplay:10.37,2013-01-29 17:01:00,
2013-01-29 12:06:00,26.0,23.5,30.18,East,89,6.9,6.9,90,0.02,OVC,,0.02,WeatherDisplay:10.37,2013-01-29 17:06:00,
2013-01-29 12:11:00,25.9,23.4,30.18,East,89,6.9,6.9,90,0.02,OVC,,0.02,WeatherDisplay:10.37,2013-01-29 17:11:00,
2013-01-29 12:16:00,25.9,23.4,30.18,East,89,5.8,5.8,90,0.02,OVC,,0.02,WeatherDisplay:10.37,2013-01-29 17:16:00,
2013-01-29 12:21:00,26.0,23.5,30.17,East,89,6.9,6.9,90,0.02,OVC,,0.02,WeatherDisplay:10.37,2013-01-29 17:21:00,
2013-01-29 12:26:00,26.3,23.5,30.17,East,89,4.6,4.6,89,0.02,OVC,,0.02,WeatherDisplay:10.37,2013-01-29 17:26:00,
2013-01-29 12:31:00,26.6,23.8,30.17,East,89,4.6,4.6,89,0.02,OVC,,0.02,WeatherDisplay:10.37,2013-01-29 17:31:00,
2013-01-29 12:36:00,27.1,24.0,30.17,ENE,78,1.1,1.1,88,0.01,OVC,,0.02,WeatherDisplay:10.37,2013-01-29 17:36:00,
2013-01-29 12:42:00,27.4,24.3,30.16,ENE,78,2.3,2.3,88,0.01,OVC,,0.02,WeatherDisplay:10.37,2013-01-29 17:42:00,
2013-01-29 12:47:00,27.5,24.1,30.16,ENE,78,2.3,2.3,87,0.02,RA,,0.03,WeatherDisplay:10.37,2013-01-29 17:47:00,
2013-01-29 12:52:00,27.9,24.8,30.17,ENE,78,2.8,2.8,88,0.02,RA,,0.03,WeatherDisplay:10.37,2013-01-29 17:52:00,
2013-01-29 12:57:00,27.9,24.5,30.16,ENE,78,4.6,4.6,87,0.01,OVC,,0.03,WeatherDisplay:10.37,2013-01-29 17:57:00,
2013-01-29 13:02:00,27.9,24.5,30.17,ENE,78,4.6,4.6,87,0.01,CLR,,0.03,WeatherDisplay:10.37,2013-01-29 18:02:00,
2013-01-29 13:07:00,27.9,24.8,30.16,ENE,78,1.1,1.1,88,0.01,CLR,,0.03,WeatherDisplay:10.37,2013-01-29 18:07:00,
2013-01-29 13:12:00,28.2,25.1,30.17,NNE,31,4.2,4.2,88,0.01,CLR,,0.03,WeatherDisplay:10.37,2013-01-29 18:12:00,
2013-01-29 13:17:00,28.7,25.6,30.17,NNE,31,1.1,1.1,88,0.01,CLR,,0.03,WeatherDisplay:10.37,2013-01-29 18:17:00,
2013-01-29 13:22:00,29.1,25.4,30.17,NNE,31,1.1,0.0,86,0.02,RA,,0.04,WeatherDisplay:10.37,2013-01-29 18:22:00,
2013-01-29 13:27:00,29.1,25.7,30.17,ENE,64,4.6,4.6,87,0.02,RA,,0.04,WeatherDisplay:10.37,2013-01-29 18:27:00,
2013-01-29 13:32:00,29.1,25.7,30.17,ENE,64,4.6,4.6,87,0.02,CLR,,0.04,WeatherDisplay:10.37,2013-01-29 18:32:00,
2013-01-29 13:37:00,29.1,25.7,30.17,ENE,64,2.3,2.3,87,0.02,CLR,,0.04,WeatherDisplay:10.37,2013-01-29 18:37:00,
2013-01-29 13:42:00,29.4,26.0,30.17,ENE,64,4.6,4.6,87,0.02,CLR,,0.04,WeatherDisplay:10.37,2013-01-29 18:42:00,
2013-01-29 13:47:00,29.4,26.0,30.18,ENE,64,2.3,2.3,87,0.01,CLR,,0.04,WeatherDisplay:10.37,2013-01-29 18:47:00,
2013-01-29 13:52:00,29.7,26.6,30.18,West,265,4.6,4.6,88,0.01,CLR,,0.04,WeatherDisplay:10.37,2013-01-29 18:52:00,
2013-01-29 13:57:00,30.0,26.6,30.18,West,265,2.3,0.0,87,0.01,CLR,,0.04,WeatherDisplay:10.37,2013-01-29 18:57:00,
2013-01-29 14:03:00,30.2,26.5,30.18,West,265,1.1,1.1,86,0.02,RA,,0.05,WeatherDisplay:10.37,2013-01-29 19:03:00,
2013-01-29 14:08:00,30.3,26.6,30.19,West,265,0.0,0.0,86,0.02,RA,,0.05,WeatherDisplay:10.37,2013-01-29 19:08:00,
2013-01-29 14:13:00,30.3,26.6,30.19,West,265,1.1,1.4,86,0.02,OVC,,0.05,WeatherDisplay:10.37,2013-01-29 19:13:00,
2013-01-29 14:18:00,30.3,26.6,30.19,West,265,0.0,0.0,86,0.02,OVC,,0.05,WeatherDisplay:10.37,2013-01-29 19:18:00,
2013-01-29 14:23:00,30.3,26.6,30.19,West,265,1.4,1.4,86,0.01,OVC,,0.05,WeatherDisplay:10.37,2013-01-29 19:23:00,
2013-01-29 14:28:00,30.3,26.6,30.19,West,265,0.0,0.0,86,0.01,OVC,,0.05,WeatherDisplay:10.37,2013-01-29 19:28:00,
2013-01-29 14:33:00,30.2,26.8,30.18,West,265,2.3,2.3,87,0.01,OVC,,0.06,WeatherDisplay:10.37,2013-01-29 19:33:00,
2013-01-29 14:38:00,30.2,26.8,30.18,ESE,119,4.6,4.6,87,0.02,RA,,0.06,WeatherDisplay:10.37,2013-01-29 19:38:00,
2013-01-29 14:43:00,29.6,26.5,30.18,ESE,119,2.3,2.5,88,0.02,RA,,0.06,WeatherDisplay:10.37,2013-01-29 19:43:00,
2013-01-29 14:48:00,29.3,26.2,30.17,ESE,119,2.3,2.3,88,0.02,OVC,,0.06,WeatherDisplay:10.37,2013-01-29 19:48:00,
2013-01-29 14:53:00,29.1,26.3,30.17,ESE,119,2.3,2.3,89,0.02,OVC,,0.06,WeatherDisplay:10.37,2013-01-29 19:53:00,
2013-01-29 14:58:00,29.1,26.3,30.17,ESE,119,1.1,1.3,89,0.02,OVC,,0.06,WeatherDisplay:10.37,2013-01-29 19:58:00,
2013-01-29 14:59:00,29.1,26.3,30.17,ESE,119,1.4,1.4,89,0.02,OVC,,0.06,WeatherDisplay:10.37,2013-01-29 19:59:00,
2013-01-29 15:04:00,29.1,26.5,30.17,ESE,119,0.0,0.0,90,0.01,SCT,,0.06,WeatherDisplay:10.37,2013-01-29 20:04:00,
2013-01-29 15:09:00,29.1,26.5,30.17,ESE,119,2.3,2.3,90,0.01,SCT,,0.06,WeatherDisplay:10.37,2013-01-29 20:09:00,
2013-01-29 15:14:00,29.1,26.5,30.17,ESE,119,0.0,0.0,90,0.01,SCT,,0.06,WeatherDisplay:10.37,2013-01-29 20:14:00,
2013-01-29 15:19:00,29.3,26.7,30.16,ESE,119,0.0,0.0,90,0.01,SCT,,0.06,WeatherDisplay:10.37,2013-01-29 20:19:00,
2013-01-29 15:24:00,29.6,27.0,30.16,ESE,119,0.0,0.0,90,0.01,SCT,,0.06,WeatherDisplay:10.37,2013-01-29 20:24:00,
2013-01-29 15:29:00,29.7,27.1,30.16,ESE,119,0.0,0.0,90,0.01,SCT,,0.06,WeatherDisplay:10.37,2013-01-29 20:29:00,
2013-01-29 15:34:00,29.7,26.9,30.16,ESE,119,0.0,0.0,89,0.00,SCT,,0.06,WeatherDisplay:10.37,2013-01-29 20:34:00,
2013-01-29 15:39:00,29.7,26.9,30.16,ESE,119,0.0,0.0,89,0.00,SCT,,0.06,WeatherDisplay:10.37,2013-01-29 20:39:00,
2013-01-29 15:44:00,29.6,26.8,30.15,ESE,119,4.2,4.2,89,0.00,SCT,,0.06,WeatherDisplay:10.37,2013-01-29 20:44:00,
2013-01-29 15:49:00,29.3,26.7,30.14,ESE,116,6.9,6.9,90,0.00,SCT,,0.06,WeatherDisplay:10.37,2013-01-29 20:49:00,
2013-01-29 15:54:00,28.8,26.5,30.14,ESE,116,0.0,0.0,91,0.00,SCT,,0.06,WeatherDisplay:10.37,2013-01-29 20:54:00,
2013-01-29 15:59:00,28.8,26.8,30.15,ESE,116,0.0,0.0,92,0.00,SCT,,0.06,WeatherDisplay:10.37,2013-01-29 20:59:00,
2013-01-29 16:04:00,28.8,26.8,30.15,ESE,116,0.0,0.0,92,0.00,CLR,,0.06,WeatherDisplay:10.37,2013-01-29 21:04:00,
2013-01-29 16:09:00,29.0,27.0,30.16,ESE,116,0.0,0.0,92,0.00,CLR,,0.06,WeatherDisplay:10.37,2013-01-29 21:09:00,
2013-01-29 16:14:00,29.1,27.1,30.16,ESE,116,0.0,0.0,92,0.00,CLR,,0.06,WeatherDisplay:10.37,2013-01-29 21:14:00,
2013-01-29 16:19:00,29.0,27.0,30.17,ESE,116,0.0,0.0,92,0.00,CLR,,0.06,WeatherDisplay:10.37,2013-01-29 21:19:00,
2013-01-29 16:24:00,29.0,27.0,30.16,ESE,116,1.1,1.1,92,0.00,CLR,,0.06,WeatherDisplay:10.37,2013-01-29 21:24:00,
2013-01-29 16:30:00,28.7,26.9,30.17,South,188,2.3,2.3,93,0.00,CLR,,0.06,WeatherDisplay:10.37,2013-01-29 21:30:00,
2013-01-29 16:35:00,28.5,27.0,30.17,SW,229,1.1,1.1,94,0.00,CLR,,0.06,WeatherDisplay:10.37,2013-01-29 21:35:00,
2013-01-29 16:40:00,28.2,27.0,30.17,SW,230,0.0,0.4,95,0.00,CLR,,0.06,WeatherDisplay:10.37,2013-01-29 21:40:00,
2013-01-29 16:45:00,28.1,27.1,30.17,SW,230,1.1,1.2,96,0.00,CLR,,0.06,WeatherDisplay:10.37,2013-01-29 21:45:00,
2013-01-29 16:50:00,27.9,27.2,30.18,SW,230,1.1,1.1,97,0.00,CLR,,0.06,WeatherDisplay:10.37,2013-01-29 21:50:00,
2013-01-29 16:55:00,27.8,27.3,30.17,SW,230,2.3,2.3,98,0.00,CLR,,0.06,WeatherDisplay:10.37,2013-01-29 21:55:00,
2013-01-29 17:00:00,27.8,27.3,30.18,SW,230,1.1,0.0,98,0.00,CLR,,0.06,WeatherDisplay:10.37,2013-01-29 22:00:00,
2013-01-29 17:05:00,27.9,27.4,30.18,SW,230,1.1,0.0,98,0.00,BKN,,0.06,WeatherDisplay:10.37,2013-01-29 22:05:00,
2013-01-29 17:10:00,27.9,27.4,30.18,SW,230,0.0,0.0,98,0.00,BKN,,0.06,WeatherDisplay:10.37,2013-01-29 22:10:00,
2013-01-29 17:15:00,27.9,27.7,30.18,SW,230,0.0,0.0,99,0.00,BKN,,0.06,WeatherDisplay:10.37,2013-01-29 22:15:00,
2013-01-29 17:20:00,27.9,27.7,30.19,SW,230,0.0,0.0,99,0.00,BKN,,0.06,WeatherDisplay:10.37,2013-01-29 22:20:00,
2013-01-29 17:25:00,27.9,27.7,30.19,SW,230,0.0,0.0,99,0.00,BKN,,0.06,WeatherDisplay:10.37,2013-01-29 22:25:00,
2013-01-29 17:30:00,27.9,27.7,30.19,SW,230,0.0,0.0,99,0.00,BKN,,0.06,WeatherDisplay:10.37,2013-01-29 22:30:00,
2013-01-29 17:35:00,27.9,27.7,30.18,SW,230,0.0,0.0,99,0.00,BKN,,0.06,WeatherDisplay:10.37,2013-01-29 22:35:00,
2013-01-29 17:40:00,27.8,27.6,30.18,SW,230,0.0,0.0,99,0.00,BKN,,0.06,WeatherDisplay:10.37,2013-01-29 22:40:00,
2013-01-29 17:45:00,27.8,27.6,30.18,SW,230,0.0,0.0,99,0.00,BKN,,0.06,WeatherDisplay:10.37,2013-01-29 22:45:00,
2013-01-29 17:50:00,27.8,27.8,30.18,SW,230,0.0,0.0,100,0.00,BKN,,0.06,WeatherDisplay:10.37,2013-01-29 22:50:00,
2013-01-29 17:55:00,27.9,27.9,30.19,SW,230,0.0,0.0,100,0.00,BKN,,0.06,WeatherDisplay:10.37,2013-01-29 22:55:00,
2013-01-29 18:00:00,27.9,27.9,30.19,SW,230,0.0,0.0,100,0.00,BKN,,0.06,WeatherDisplay:10.37,2013-01-29 23:00:00,
2013-01-29 18:05:00,27.9,27.9,30.20,SW,230,0.0,0.0,100,0.00,OVC,,0.06,WeatherDisplay:10.37,2013-01-29 23:05:00,
2013-01-29 18:10:00,27.9,27.9,30.20,SW,230,0.0,0.0,100,0.00,OVC,,0.06,WeatherDisplay:10.37,2013-01-29 23:10:00,
2013-01-29 18:15:00,27.9,27.9,30.20,SW,230,0.0,0.0,100,0.00,OVC,,0.06,WeatherDisplay:10.37,2013-01-29 23:15:00,
2013-01-29 18:20:00,28.1,28.1,30.20,SW,230,0.0,0.0,100,0.00,OVC,,0.06,WeatherDisplay:10.37,2013-01-29 23:20:00,
2013-01-29 18:25:00,28.1,28.1,30.21,SW,230,0.0,0.0,100,0.00,OVC,,0.06,WeatherDisplay:10.37,2013-01-29 23:25:00,
2013-01-29 18:30:00,28.1,28.1,30.21,SW,230,0.0,0.0,100,0.00,OVC,,0.06,WeatherDisplay:10.37,2013-01-29 23:30:00,
2013-01-29 18:35:00,28.2,28.2,30.21,SW,230,0.0,0.0,100,0.00,OVC,,0.06,WeatherDisplay:10.37,2013-01-29 23:35:00,
2013-01-29 18:40:00,28.2,28.2,30.21,SW,230,0.0,0.0,100,0.00,OVC,,0.06,WeatherDisplay:10.37,2013-01-29 23:40:00,
2013-01-29 18:45:00,28.2,28.2,30.21,SW,230,0.0,0.0,100,0.00,OVC,,0.06,WeatherDisplay:10.37,2013-01-29 23:45:00,
2013-01-29 18:50:00,28.2,28.2,30.21,SW,230,0.0,0.0,100,0.00,OVC,,0.06,WeatherDisplay:10.37,2013-01-29 23:50:00,
2013-01-29 18:55:00,28.2,28.2,30.20,SW,230,0.0,0.0,100,0.00,OVC,,0.06,WeatherDisplay:10.37,2013-01-29 23:55:00,
2013-01-29 19:00:00,28.1,28.1,30.20,SW,230,0.0,0.0,100,0.00,OVC,,0.06,WeatherDisplay:10.37,2013-01-30 00:00:00,
2013-01-29 19:05:00,28.1,28.1,30.19,SW,230,0.0,0.0,100,0.00,OVC,,0.06,WeatherDisplay:10.37,2013-01-30 00:05:00,
2013-01-29 19:10:00,27.9,27.9,30.19,SW,230,0.0,0.0,100,0.00,OVC,,0.06,WeatherDisplay:10.37,2013-01-30 00:10:00,
2013-01-29 19:15:00,27.9,27.9,30.19,SW,230,0.0,0.0,100,0.00,OVC,,0.06,WeatherDisplay:10.37,2013-01-30 00:15:00,
2013-01-29 19:20:00,27.9,27.9,30.19,SW,230,0.0,0.0,100,0.00,OVC,,0.06,WeatherDisplay:10.37,2013-01-30 00:20:00,
2013-01-29 19:25:00,27.9,27.9,30.19,SW,230,0.0,0.0,100,0.00,OVC,,0.06,WeatherDisplay:10.37,2013-01-30 00:25:00,
2013-01-29 19:30:00,27.9,27.9,30.19,SW,230,0.0,0.0,100,0.00,OVC,,0.06,WeatherDisplay:10.37,2013-01-30 00:30:00,
2013-01-29 19:35:00,27.9,27.9,30.19,SW,230,0.0,0.0,100,0.00,OVC,,0.06,WeatherDisplay:10.37,2013-01-30 00:35:00,
2013-01-29 19:40:00,27.9,27.9,30.19,SW,230,0.0,0.0,100,0.00,OVC,,0.06,WeatherDisplay:10.37,2013-01-30 00:40:00,
2013-01-29 19:45:00,27.9,27.9,30.19,SW,230,0.0,0.0,100,0.00,OVC,,0.06,WeatherDisplay:10.37,2013-01-30 00:45:00,
2013-01-29 19:50:00,27.9,27.9,30.19,SW,230,0.0,0.0,100,0.00,OVC,,0.06,WeatherDisplay:10.37,2013-01-30 00:50:00,
2013-01-29 19:55:00,27.9,27.9,30.19,SW,230,0.0,0.0,100,0.00,OVC,,0.06,WeatherDisplay:10.37,2013-01-30 00:55:00,
2013-01-29 20:00:00,28.1,28.1,30.19,SW,230,0.0,0.0,100,0.00,OVC,,0.06,WeatherDisplay:10.37,2013-01-30 01:00:00,
2013-01-29 20:05:00,28.1,28.1,30.19,SW,230,0.0,0.0,100,0.00,OVC,,0.06,WeatherDisplay:10.37,2013-01-30 01:05:00,
2013-01-29 20:10:00,28.1,28.1,30.18,SW,230,0.0,0.0,100,0.00,OVC,,0.06,WeatherDisplay:10.37,2013-01-30 01:10:00,
2013-01-29 20:15:00,28.2,28.2,30.18,SW,230,0.0,0.0,100,0.00,OVC,,0.06,WeatherDisplay:10.37,2013-01-30 01:15:00,
2013-01-29 20:20:00,28.2,28.2,30.19,SW,230,0.0,0.0,100,0.00,OVC,,0.06,WeatherDisplay:10.37,2013-01-30 01:20:00,
2013-01-29 20:25:00,28.2,28.2,30.19,SW,230,0.0,0.0,100,0.00,OVC,,0.06,WeatherDisplay:10.37,2013-01-30 01:25:00,
2013-01-29 20:31:00,28.2,28.2,30.19,SW,230,0.0,0.0,100,0.00,OVC,,0.06,WeatherDisplay:10.37,2013-01-30 01:31:00,
2013-01-29 20:36:00,28.4,28.4,30.18,SW,230,0.0,0.0,100,0.00,OVC,,0.06,WeatherDisplay:10.37,2013-01-30 01:36:00,
2013-01-29 20:41:00,28.4,28.4,30.18,SW,230,0.0,0.0,100,0.00,OVC,,0.06,WeatherDisplay:10.37,2013-01-30 01:41:00,
2013-01-29 20:46:00,28.4,28.4,30.17,SW,230,0.0,0.0,100,0.00,OVC,,0.06,WeatherDisplay:10.37,2013-01-30 01:46:00,
2013-01-29 20:51:00,28.5,28.5,30.17,SW,230,0.0,0.0,100,0.00,OVC,,0.06,WeatherDisplay:10.37,2013-01-30 01:51:00,
2013-01-29 20:56:00,28.5,28.5,30.17,SW,230,0.0,0.0,100,0.00,OVC,,0.06,WeatherDisplay:10.37,2013-01-30 01:56:00,
2013-01-29 21:01:00,28.5,28.5,30.17,SW,230,0.0,0.0,100,0.00,OVC,,0.06,WeatherDisplay:10.37,2013-01-30 02:01:00,
2013-01-29 21:06:00,28.7,28.7,30.17,SW,230,0.0,0.0,100,0.00,OVC,,0.06,WeatherDisplay:10.37,2013-01-30 02:06:00,
2013-01-29 21:11:00,28.7,28.7,30.17,SW,230,0.0,0.0,100,0.00,OVC,,0.06,WeatherDisplay:10.37,2013-01-30 02:11:00,
2013-01-29 21:16:00,28.8,28.8,30.17,SW,230,0.0,0.0,100,0.00,OVC,,0.06,WeatherDisplay:10.37,2013-01-30 02:16:00,
2013-01-29 21:21:00,29.0,29.0,30.17,SW,230,0.0,0.0,100,0.00,OVC,,0.06,WeatherDisplay:10.37,2013-01-30 02:21:00,
2013-01-29 21:26:00,29.0,29.0,30.17,SW,230,0.0,0.0,100,0.00,OVC,,0.06,WeatherDisplay:10.37,2013-01-30 02:26:00,
2013-01-29 21:31:00,29.1,29.1,30.17,SW,230,0.0,0.0,100,0.00,OVC,,0.06,WeatherDisplay:10.37,2013-01-30 02:31:00,
2013-01-29 21:36:00,29.3,29.3,30.17,SW,230,0.0,0.0,100,0.00,OVC,,0.06,WeatherDisplay:10.37,2013-01-30 02:36:00,
2013-01-29 21:41:00,29.3,29.3,30.17,SW,230,0.0,0.0,100,0.00,OVC,,0.06,WeatherDisplay:10.37,2013-01-30 02:41:00,
2013-01-29 21:46:00,29.4,29.4,30.17,SW,230,0.0,0.0,100,0.00,OVC,,0.06,WeatherDisplay:10.37,2013-01-30 02:46:00,
2013-01-29 21:51:00,29.6,29.6,30.17,SW,230,0.0,0.0,100,0.00,OVC,,0.06,WeatherDisplay:10.37,2013-01-30 02:51:00,
2013-01-29 21:56:00,29.6,29.6,30.17,SW,230,0.0,0.0,100,0.00,OVC,,0.06,WeatherDisplay:10.37,2013-01-30 02:56:00,
2013-01-29 22:01:00,29.6,29.6,30.17,SW,230,0.0,0.0,100,0.00,OVC,,0.06,WeatherDisplay:10.37,2013-01-30 03:01:00,
2013-01-29 22:06:00,29.7,29.7,30.17,SW,230,0.0,0.0,100,0.00,OVC,,0.06,WeatherDisplay:10.37,2013-01-30 03:06:00,
2013-01-29 22:11:00,29.7,29.7,30.17,SW,230,0.0,0.0,100,0.00,OVC,,0.06,WeatherDisplay:10.37,2013-01-30 03:11:00,
2013-01-29 22:16:00,29.7,29.7,30.17,SW,230,0.0,0.0,100,0.00,OVC,,0.06,WeatherDisplay:10.37,2013-01-30 03:16:00,
2013-01-29 22:21:00,29.7,29.7,30.17,SW,230,0.0,0.0,100,0.00,OVC,,0.06,WeatherDisplay:10.37,2013-01-30 03:21:00,
2013-01-29 22:26:00,29.7,29.7,30.17,SW,230,0.0,0.0,100,0.00,OVC,,0.06,WeatherDisplay:10.37,2013-01-30 03:26:00,
2013-01-29 22:31:00,29.7,29.7,30.16,SW,230,0.0,0.0,100,0.00,OVC,,0.06,WeatherDisplay:10.37,2013-01-30 03:31:00,
2013-01-29 22:36:00,29.7,29.7,30.17,SW,230,0.0,0.0,100,0.00,OVC,,0.06,WeatherDisplay:10.37,2013-01-30 03:36:00,
2013-01-29 22:41:00,29.7,29.7,30.16,SW,230,0.0,0.0,100,0.00,OVC,,0.06,WeatherDisplay:10.37,2013-01-30 03:41:00,
2013-01-29 22:46:00,29.7,29.7,30.15,SW,230,0.0,0.0,100,0.00,OVC,,0.06,WeatherDisplay:10.37,2013-01-30 03:46:00,
2013-01-29 22:51:00,29.7,29.7,30.15,SW,230,0.0,0.0,100,0.00,OVC,,0.06,WeatherDisplay:10.37,2013-01-30 03:51:00,
2013-01-29 22:56:00,29.7,29.7,30.15,SW,230,0.0,0.0,100,0.00,OVC,,0.06,WeatherDisplay:10.37,2013-01-30 03:56:00,
2013-01-29 23:01:00,29.7,29.7,30.15,SW,230,0.0,0.0,100,0.00,OVC,,0.06,WeatherDisplay:10.37,2013-01-30 04:01:00,
2013-01-29 23:06:00,29.7,29.7,30.15,SW,230,0.0,0.0,100,0.00,OVC,,0.06,WeatherDisplay:10.37,2013-01-30 04:06:00,
2013-01-29 23:11:00,29.7,29.7,30.15,SW,230,0.0,0.0,100,0.00,OVC,,0.06,WeatherDisplay:10.37,2013-01-30 04:11:00,
2013-01-29 23:16:00,29.7,29.7,30.14,SW,230,0.0,0.0,100,0.00,OVC,,0.06,WeatherDisplay:10.37,2013-01-30 04:16:00,
2013-01-29 23:21:00,29.7,29.7,30.14,SW,230,0.0,0.0,100,0.00,OVC,,0.06,WeatherDisplay:10.37,2013-01-30 04:21:00,
2013-01-29 23:26:00,29.9,29.9,30.15,SW,230,0.0,0.0,100,0.00,OVC,,0.06,WeatherDisplay:10.37,2013-01-30 04:26:00,
2013-01-29 23:31:00,29.9,29.9,30.15,SW,230,0.0,0.0,100,0.00,OVC,,0.06,WeatherDisplay:10.37,2013-01-30 04:31:00,
2013-01-29 23:36:00,29.9,29.9,30.16,SW,230,2.3,2.3,100,0.00,OVC,,0.06,WeatherDisplay:10.37,2013-01-30 04:36:00,
2013-01-29 23:41:00,30.2,30.2,30.15,SW,230,0.0,0.0,100,0.00,OVC,,0.06,WeatherDisplay:10.37,2013-01-30 04:41:00,
2013-01-29 23:46:00,30.2,30.2,30.15,SW,230,0.0,0.0,100,0.00,OVC,,0.06,WeatherDisplay:10.37,2013-01-30 04:46:00,
2013-01-29 23:51:00,30.3,30.3,30.15,SW,230,0.0,0.0,100,0.00,OVC,,0.06,WeatherDisplay:10.37,2013-01-30 04:51:00,
2013-01-29 23:56:00,30.3,30.3,30.15,SW,230,0.0,0.0,100,0.00,OVC,,0.06,WeatherDisplay:10.37,2013-01-30 04:56:00,